Location: Poughquag
(41.6090°N, 73.6820°W)
Time: 12:34:58
(UTC-04:00)

A-11 Canister half - Pass Details

Date: 03 June 2020
Orbit: 1527 x 1682 km, 47.3° (Epoch: 06 July)

Event Time Altitude Azimuth Distance (km) Brightness Sun altitude
Rises 05:18:43 0° 197° (SSW) 4,681 11.1 -1.3°
Reaches altitude 10° 05:22:15 10° 187° (S) 3,691 10.7 -0.8°
Maximum altitude 05:29:53 30° 131° (SE) 2,481 10.4 0.4°
Drops below altitude 10° 05:37:31 10° 75° (ENE) 3,708 12.9 1.7°
Sets 05:41:03 0° 65° (ENE) 4,707 14.9 2.3°
